Probability
0 0 0 0 0 0 0 0 0 0 0 0 0 0 0 0 0 0 0 0 0 0 0 0 0 0 0 0 0 0 0 0 0 0 0 0 0 0 0 0 0 0 0
0 0 0 0 0 0 0 0 0 0 0 0 0 0 0 0 0 0 0 0 0 0 0 0 0 0 0 0 0 0 0 0 0 0 0 0 0 0 0 0 0 0 0
0 0 0 0 0 0 0 0 0 0 0 0 0 0 0 0 0 0 0 0 0 0 0 0 0 0 0 0 0 0 0 0 0 0 0 0 0 0 0 0 0 0 0
0 0 0 0 0 0 0 0 0 0 0 0 0 0 0 0 0 0 0 0 0 0 0 0 0 0 0 0 0 0 0 0 0 0 0 0 0 0 0 0 0 0 0
0 0 0 0 0 0 0 0 0 0 0 0 0 0 0 0 0 0 0 0 0 0 0 0 0 0 0 0 0 0 0 0 0 0 0 0 0 0 0 0 0 0 0
0 0 0 0 0 0 0 0 0 0 0 0 0 0 0 0 0 0 0 0 0 0 0 0 0 0 0 0 0 0 0 0 0 0 0 0 0 0 0 0 0 0 0
0 0 0 0 0 0 0 0 0 0 0 0 0 0 0 0 0 0 0 0 0 0 0 0 0 0 0 0 0 0 0 0 0 0 0 0 0 0 0 0 0 0 0
0 0 0 0 0 0 0 0 0 0 0 0 0 0 0 0 0 0 0 0 0 0 0 0 0 0 0 0 0 0 0 0 0 0 0 0 0 0 0 0 0 0 0
0 0 0 0 0 0 0 0 0 0 0 0 0 0 0 0 0 0 0 0 0 0 0 0 0 0 0 0 0 0 0 0 0 0 0 0 0 0 0 0 0 0 0
0 0 0 0 0 0 0 0 0 0 0 0 0 0 0 0 0 0 0 0 0 0 0 0 0 0 0 0 0 0 0 0 0 0 0 0 0 0 0 0 0 0 0
0 0 0 0 0 0 0 0 0 0 0 0 0 0 0 0 0 0 0 0 0 0 0 0 0 0 0 0 0 0 0 0 0 0 0 0 0 0 0 0 0 0 0
0 0 0 0 0 0 0 0 0 0 0 0 0 0 0 0 0 0 0 0 0 0 0 0 0 0 0 0 0 0 0 0 0 0 0 0 0 0 0 0 0 0 0
0 0 0 0 0 0 0 0 0 0 0 0 0 0 0 0 0 0 0 0 0 0 0 0 0 0 0 0 0 0 0 0 0 0 0 0 0 0 0 0 0 0 0
0 0 0 0 0 0 0 0 0 0 0 0 0 0 0 0 0 0 0 0 0 0 0 0 0 0 0 0 0 0 0 0 0 0 0 0 0 0 0 0 0 0 0
0 0 0 0 0 0 0 0 0 0 0 0 0 0 0 0 0 0 0 0 0 0 0 0 0 0 0 0 0 0 0 0 0 0 0 0 0 0 0 0 0 0 0
0 0 0 0 0 0 0 0 0 0 0 0 0 0 0 0 0 0 0 0 0 0 0 0 0 0 0 0 0 0 0 0 0 0 0 0 0 0 0 0 0 0 0
0 0 0 0 0 0 0 0 0 0 0 0 0 0 0 0 0 0 0 0 0 0 0 0 0 0 0 0 0 0 0 0 0 0 0 0 0 0 0 0 0 0 0
0 0 0 0 0 0 0 0 0 0 0 0 0 0 0 0 0 0 0 0 0 0 0 0 0 0 0 0 0 0 0 0 0 0 0 0 0 0 0 0 0 0 0
0 0 0 0 0 0 0 0 0 0 0 0 0 0 0 0 0 0 0 0 0 0 0 0 0 0 0 0 0 0 0 0 0 0 0 0 0 0 0 0 0 0 0
0 0 0 0 0 0 0 0 0 0 0 0 0 0 0 0 0 0 0 0 0 0 0 0 0 0 0 0 0 0 0 0 0 0 0 0 0 0 0 0 0 0 0
0 0 0 0 0 0 0 0 0 0 0 0 0 0 0 0 0 0 0 0 0 0 0 0 0 0 0 0 0 0 0 0 0 0 0 0 0 0 0 0 0 0 0
0 0 0 0 0 0 0 0 0 0 0 0 0 0 0 0 0 0 0 0 0 0 0 0 0 0 0 0 0 0 0 0 0 0 0 0 0 0 0 0 0 0 0
0 0 0 0 0 0 0 0 0 0 0 0 0 0 0 0 0 0 0 0 0 0 0 0 0 0 0 0 0 0 0 0 0 0 0 0 0 0 0 0 0 0 0
0 0 0 0 0 0 0 0 0 0 0 0 0 0 0 0 0 0 0 0 0 0 0 0 0 0 0 0 0 0 0 0 0 0 0 0 0 0 0 0 0 0 0
0 0 0 0 0 0 0 0 0 0 0 0 0 0 0 0 0 0 0 0 0 0 0 0 0 0 0 0 0 0 0 0 0 0 0 0 0 0 0 0 0 0 0
0 0 0 0 0 0 0 0 0 0 0 0 0 0 0 0 0 0 0 0 0 0 0 0 0 0 0 0 0 0 0 0 0 0 0 0 0 0 0 0 0 0 0
Height
5638 5642 5646 5650 5654 5658 5662 5666 5671 5675 5679 5683 5686 5691 5694 5697 5700 5703 5707 5710 5713 5715 5717 5718 5720 5721 5722 5723 5723 5724 5724 5724 5725 5726 5725 5724 5724 5723 5722 5722 5721 5720 5719
5629 5633 5637 5641 5644 5648 5652 5656 5661 5665 5669 5673 5677 5681 5684 5687 5691 5694 5697 5700 5702 5704 5706 5708 5709 5710 5711 5712 5712 5712 5712 5712 5712 5713 5713 5712 5711 5711 5710 5709 5708 5707 5706
5619 5623 5627 5630 5634 5638 5642 5646 5650 5654 5658 5662 5666 5670 5674 5677 5680 5683 5686 5689 5691 5693 5695 5697 5698 5699 5700 5700 5700 5700 5700 5700 5700 5700 5700 5699 5698 5697 5696 5696 5694 5693 5692
5609 5612 5616 5619 5623 5627 5631 5635 5639 5643 5647 5652 5655 5659 5663 5666 5669 5672 5675 5677 5680 5682 5683 5685 5686 5687 5688 5688 5688 5688 5687 5687 5686 5686 5686 5686 5685 5683 5682 5681 5680 5679 5677
5598 5601 5605 5608 5612 5616 5620 5624 5628 5632 5636 5640 5644 5648 5652 5655 5658 5661 5663 5666 5668 5669 5671 5672 5673 5674 5675 5675 5675 5675 5674 5673 5673 5672 5671 5671 5670 5668 5667 5665 5664 5663 5662
5587 5590 5593 5597 5600 5604 5608 5612 5616 5620 5624 5628 5632 5636 5640 5643 5646 5649 5651 5653 5655 5657 5658 5660 5660 5661 5661 5661 5661 5660 5660 5659 5658 5657 5656 5655 5654 5652 5651 5649 5648 5647 5647
5576 5579 5582 5585 5589 5593 5597 5601 5605 5608 5612 5616 5620 5624 5627 5631 5633 5636 5638 5640 5642 5644 5645 5646 5647 5647 5647 5647 5646 5645 5644 5643 5642 5641 5640 5639 5638 5637 5635 5633 5632 5630 5629
5565 5568 5571 5574 5578 5582 5585 5589 5593 5597 5601 5604 5608 5611 5615 5618 5620 5623 5625 5627 5628 5630 5631 5631 5632 5632 5631 5631 5630 5630 5628 5627 5626 5625 5624 5623 5621 5619 5617 5616 5615 5614 5613
5554 5557 5560 5563 5566 5570 5574 5578 5581 5585 5588 5592 5595 5599 5602 5605 5607 5609 5611 5613 5615 5616 5616 5616 5616 5616 5616 5615 5614 5614 5613 5611 5609 5608 5607 5605 5604 5602 5600 5599 5598 5597 5597
5543 5545 5548 5551 5555 5558 5562 5566 5569 5572 5576 5579 5583 5586 5589 5592 5594 5596 5597 5599 5601 5602 5602 5601 5601 5600 5600 5598 5597 5597 5596 5596 5594 5592 5591 5589 5588 5586 5584 5583 5581 5580 5579
5531 5534 5537 5540 5543 5546 5550 5553 5556 5559 5563 5567 5570 5573 5575 5578 5580 5581 5582 5584 5585 5586 5586 5586 5585 5584 5583 5582 5581 5581 5580 5579 5578 5577 5575 5574 5573 5571 5569 5567 5565 5563 5562
5521 5523 5526 5529 5532 5535 5538 5541 5543 5546 5550 5553 5556 5559 5562 5563 5565 5566 5567 5568 5569 5569 5570 5570 5569 5568 5567 5566 5566 5565 5564 5563 5562 5561 5560 5559 5557 5556 5554 5551 5549 5547 5546
5510 5513 5515 5518 5520 5523 5526 5529 5531 5534 5537 5540 5543 5545 5548 5549 5550 5551 5552 5552 5553 5553 5554 5554 5553 5552 5551 5551 5550 5549 5548 5547 5547 5546 5545 5543 5542 5540 5538 5536 5534 5532 5531
5500 5502 5504 5507 5510 5512 5514 5516 5519 5521 5524 5526 5529 5531 5533 5535 5536 5536 5537 5538 5538 5538 5538 5538 5538 5537 5536 5535 5534 5533 5532 5532 5531 5530 5529 5527 5525 5524 5522 5520 5519 5517 5516
5490 5493 5495 5497 5499 5501 5503 5505 5507 5509 5511 5513 5515 5517 5519 5521 5522 5522 5523 5524 5524 5524 5524 5523 5523 5522 5521 5521 5520 5519 5517 5517 5516 5515 5513 5512 5510 5509 5507 5505 5504 5503 5502
5481 5484 5485 5487 5489 5490 5492 5494 5496 5498 5499 5501 5502 5504 5505 5507 5507 5508 5508 5509 5509 5509 5509 5509 5508 5507 5507 5506 5505 5504 5502 5501 5500 5499 5498 5497 5496 5495 5493 5492 5491 5489 5488
5472 5474 5476 5477 5479 5481 5483 5484 5485 5487 5488 5489 5490 5491 5492 5493 5494 5494 5494 5495 5495 5495 5494 5494 5493 5493 5492 5491 5490 5489 5488 5487 5486 5485 5484 5483 5482 5481 5480 5479 5478 5477 5475
5463 5465 5466 5468 5470 5471 5473 5474 5475 5477 5478 5478 5479 5479 5480 5481 5482 5482 5482 5481 5481 5481 5480 5480 5479 5479 5478 5477 5476 5475 5475 5474 5472 5472 5471 5470 5469 5468 5467 5466 5465 5464 5463
5454 5455 5457 5459 5460 5461 5463 5464 5465 5466 5467 5468 5469 5469 5469 5469 5469 5469 5469 5468 5468 5468 5467 5466 5466 5465 5465 5464 5463 5462 5461 5460 5460 5459 5458 5457 5457 5456 5455 5454 5453 5451 5450
5444 5446 5448 5449 5451 5452 5453 5454 5455 5456 5457 5458 5458 5458 5458 5458 5458 5457 5456 5456 5455 5455 5454 5454 5453 5452 5451 5450 5450 5449 5449 5448 5448 5447 5446 5446 5445 5444 5443 5442 5440 5439 5438
5435 5437 5438 5439 5441 5442 5443 5444 5445 5446 5447 5448 5448 5448 5448 5447 5447 5446 5445 5444 5443 5443 5442 5441 5441 5439 5439 5438 5438 5438 5437 5437 5436 5436 5435 5434 5433 5432 5431 5429 5428 5427 5425
5426 5427 5429 5430 5431 5432 5434 5435 5436 5436 5437 5437 5438 5437 5436 5436 5435 5435 5434 5433 5432 5431 5430 5429 5428 5427 5427 5426 5426 5426 5426 5425 5425 5424 5423 5422 5421 5420 5419 5418 5416 5415 5414
5417 5418 5419 5420 5422 5423 5424 5425 5425 5426 5427 5427 5427 5427 5426 5425 5424 5423 5422 5421 5420 5419 5418 5417 5416 5416 5415 5414 5414 5414 5414 5413 5412 5412 5411 5411 5410 5408 5407 5406 5405 5404 5402
5407 5408 5410 5411 5412 5413 5414 5415 5415 5415 5416 5416 5416 5416 5415 5414 5413 5412 5412 5411 5410 5409 5407 5406 5405 5405 5404 5403 5403 5402 5402 5401 5401 5400 5399 5399 5398 5397 5396 5395 5394 5392 5391
5398 5399 5400 5401 5402 5403 5404 5404 5405 5405 5405 5405 5405 5404 5404 5403 5403 5402 5401 5400 5399 5398 5397 5396 5395 5394 5393 5392 5391 5390 5390 5389 5388 5388 5387 5387 5386 5385 5385 5384 5383 5382 5381
5389 5390 5391 5391 5392 5393 5393 5394 5394 5394 5394 5394 5394 5393 5393 5392 5392 5391 5390 5390 5389 5388 5387 5385 5384 5383 5382 5381 5380 5379 5378 5377 5377 5376 5375 5375 5375 5375 5374 5374 5373 5372 5372
Wind_Speed
41 43 44 44 43 42 42 42 42 42 42 42 44 44 43 43 43 44 45 45 45 45 44 44 44 44 45 45 45 46 47 47 47 46 47 47 48 48 47 48 48 49 49
41 42 43 44 44 44 44 44 45 44 43 43 44 44 43 42 43 44 45 46 46 45 44 44 45 46 46 46 46 47 48 49 49 48 49 50 50 50 50 51 51 51 52
40 42 43 44 44 44 44 44 44 44 44 45 45 45 44 44 44 45 45 46 46 46 46 45 45 46 47 47 47 48 49 49 50 51 51 51 52 52 52 52 52 53 54
41 42 43 44 45 46 45 45 45 45 45 46 46 46 46 46 46 46 47 47 47 47 47 47 46 47 48 49 49 49 49 50 51 52 52 52 53 53 54 54 55 55 56
41 42 42 44 45 46 46 47 47 45 45 46 48 48 47 47 47 47 47 47 47 48 48 48 49 49 49 50 50 50 51 52 52 53 54 55 55 55 55 56 57 56 56
40 41 41 43 44 45 46 47 48 47 46 46 47 47 47 47 48 48 48 48 48 48 49 49 50 50 51 51 52 53 53 54 55 56 56 56 56 56 56 56 57 57 56
39 39 40 41 42 43 45 46 46 45 46 45 45 46 46 46 47 47 48 49 49 49 50 51 51 52 53 54 55 55 55 56 57 57 57 57 56 57 57 57 56 56 56
39 39 40 42 42 43 43 44 44 44 44 45 45 45 46 46 47 47 47 48 49 49 50 51 52 53 55 55 56 56 56 56 57 57 57 57 57 57 57 57 56 56 55
40 40 41 42 43 42 43 43 43 44 45 45 46 46 46 47 47 48 48 49 49 50 51 52 53 53 54 55 56 56 56 56 56 57 56 56 56 56 57 56 56 56 55
40 40 41 42 43 43 42 43 44 45 45 46 46 47 47 47 47 48 49 49 50 51 52 53 54 54 55 55 55 55 56 56 56 56 55 56 56 56 56 56 56 56 55
40 40 40 42 42 42 43 44 45 46 46 47 47 48 48 48 48 49 49 50 51 52 52 53 53 53 54 55 55 55 55 55 55 55 55 56 56 56 57 57 57 57 56
39 40 40 41 41 41 42 44 44 45 46 47 47 48 49 49 50 50 51 51 52 52 52 52 52 53 54 54 54 54 53 53 53 53 54 55 55 55 55 56 56 56 56
37 38 38 39 40 40 41 42 43 44 46 46 47 48 48 49 51 51 52 52 52 52 52 52 52 53 53 54 54 54 54 53 53 53 53 53 54 54 54 54 54 54 54
35 36 37 38 38 38 39 40 42 44 45 46 46 47 48 49 50 51 51 51 51 52 52 52 52 53 53 53 53 53 54 53 52 52 52 52 53 53 53 52 51 51 51
34 34 36 36 36 37 38 39 40 42 43 44 45 46 47 48 49 49 49 49 49 50 50 50 50 50 51 51 51 52 52 52 52 52 51 50 50 49 49 48 48 48 47
33 33 33 35 35 35 36 37 38 39 40 42 43 44 45 45 46 46 47 47 47 48 48 49 49 49 49 50 50 50 50 50 51 51 50 49 48 47 46 45 45 45 45
33 32 33 35 36 35 35 35 36 36 37 38 39 40 41 41 42 43 44 45 46 47 48 48 48 48 48 48 48 48 48 48 48 48 47 46 45 44 44 43 44 44 43
33 33 34 35 35 35 35 35 35 36 36 36 37 37 38 39 40 41 42 44 44 45 45 45 45 46 47 47 46 45 45 45 45 44 44 43 43 43 42 42 42 43 43
33 33 33 33 34 34 35 35 35 35 36 36 36 36 38 39 40 40 41 42 43 43 43 44 44 44 44 44 43 43 42 42 41 41 41 41 42 42 41 41 41 42 42
32 33 33 33 33 33 34 34 34 34 34 34 35 36 37 38 39 39 40 41 41 42 42 42 42 43 42 42 41 40 40 40 40 40 40 40 41 41 40 40 40 41 41
32 32 33 33 33 33 33 33 33 33 34 34 34 36 37 38 38 39 39 40 40 40 41 41 41 41 41 40 39 39 39 39 39 39 39 40 40 40 39 39 39 40 40
31 31 32 33 32 32 33 33 33 33 34 34 35 36 36 37 37 37 38 39 39 39 39 39 39 39 38 38 38 38 38 39 39 39 39 39 39 39 39 39 38 38 38
31 31 32 32 32 32 32 33 33 34 35 35 35 35 36 36 36 36 36 36 37 37 37 37 37 36 36 36 37 37 38 38 38 38 38 38 39 39 38 38 37 37 37
30 30 30 31 31 32 32 33 33 34 35 36 36 36 35 35 35 35 35 34 34 34 34 35 34 34 35 35 36 37 37 38 38 38 38 38 38 38 37 36 36 35 35
29 29 30 31 31 32 32 32 33 33 34 35 35 35 35 34 34 34 33 33 33 33 33 34 34 34 34 35 35 36 36 37 37 37 38 37 36 35 34 34 33 33 32
28 29 30 31 31 32 32 32 32 32 33 33 33 33 33 33 34 33 33 33 33 33 33 33 33 33 34 34 34 34 35 35 35 35 35 34 33 33 32 32 31 30 28
Wind_Direction
245 241 240 241 240 238 237 237 237 239 241 243 243 243 245 247 247 247 247 248 250 252 254 256 258 260 262 264 265 266 267 268 269 270 270 271 272 272 273 273 274 275 276
242 240 241 242 240 238 238 239 240 240 241 242 242 242 245 246 247 247 248 249 251 252 254 256 258 259 262 264 265 267 268 269 269 271 272 273 273 273 273 273 274 275 276
242 242 243 243 241 240 239 239 239 241 243 242 242 242 245 246 247 248 249 250 251 253 255 257 259 260 261 263 265 267 268 269 270 271 273 274 274 274 274 274 275 275 276
247 245 244 242 241 240 240 241 241 242 243 242 242 243 245 246 247 249 250 251 252 254 256 258 260 262 263 265 266 267 268 270 271 272 274 274 275 275 275 275 276 276 277
247 245 244 244 241 240 241 242 242 243 244 244 244 245 246 246 247 249 251 252 254 255 257 259 261 263 265 266 267 268 270 271 272 274 275 275 276 276 277 276 276 276 277
246 246 246 245 243 241 241 242 242 243 243 245 244 246 247 248 249 251 253 254 255 257 258 260 262 264 265 267 268 270 271 273 273 274 275 276 276 276 277 277 277 277 277
248 248 246 246 244 242 241 242 242 243 243 245 247 248 250 251 252 254 255 257 258 258 259 261 263 265 266 268 270 270 271 273 274 274 275 276 276 276 277 277 278 278 279
250 249 248 248 246 244 244 243 243 244 244 246 246 248 250 252 253 255 256 257 259 261 262 264 265 266 267 269 270 271 272 273 273 274 275 276 276 276 276 277 277 278 278
251 251 250 249 247 246 246 245 245 245 245 246 248 250 251 252 254 256 257 259 261 263 265 266 267 268 269 270 271 271 271 272 273 273 274 275 275 276 276 276 277 278 277
251 251 249 248 248 247 247 246 247 247 247 248 249 251 253 254 256 257 259 261 263 264 266 268 268 269 269 270 271 271 272 272 273 273 273 273 274 275 275 276 276 277 278
251 250 248 248 248 248 248 247 249 248 248 249 250 252 254 256 257 259 260 262 263 265 267 268 269 269 270 270 271 272 273 273 273 273 273 274 275 276 277 277 277 278 279
250 250 249 249 250 249 249 249 250 249 249 251 252 254 256 257 259 261 262 264 265 266 268 269 269 270 271 272 272 273 273 274 274 274 274 275 276 277 278 278 278 278 279
249 250 250 251 251 250 250 250 252 252 252 253 255 256 257 259 260 263 264 265 267 268 269 269 271 272 272 273 273 273 274 274 275 275 276 276 277 278 277 277 277 278 279
250 250 249 250 250 251 252 252 253 253 254 255 256 257 259 260 261 263 264 265 266 268 270 271 271 272 273 273 273 274 274 275 276 277 277 277 277 277 276 276 276 276 277
250 251 250 250 251 252 253 252 253 253 255 256 258 259 260 261 261 262 264 265 267 269 270 271 272 272 273 273 274 274 274 275 275 277 277 277 277 276 275 274 275 275 276
251 251 250 250 251 252 253 254 254 255 256 258 260 261 261 261 262 263 264 266 268 270 271 271 271 272 273 274 274 274 275 276 276 276 276 277 276 275 275 275 275 276 276
250 250 251 251 252 253 254 255 256 257 258 260 261 261 261 261 262 264 265 266 268 270 272 272 272 272 273 274 274 275 275 275 275 276 276 275 275 275 275 275 277 277 278
250 252 253 253 254 254 255 257 258 258 259 260 262 262 262 263 265 266 267 268 269 271 272 272 273 273 274 274 274 274 274 274 274 274 275 275 275 275 275 277 278 278 278
251 253 254 254 256 257 257 258 259 259 260 260 261 263 265 266 268 270 271 271 271 272 272 273 274 275 274 274 274 274 274 274 274 274 275 275 274 275 276 278 278 278 277
251 252 254 254 256 257 258 258 258 259 260 263 264 266 267 268 270 271 273 273 273 273 274 274 275 276 275 274 274 273 273 274 274 274 274 274 275 276 277 278 278 278 277
252 254 255 255 256 257 258 258 259 260 262 264 266 267 269 270 272 273 274 274 275 275 275 275 276 276 274 273 272 273 274 274 275 275 276 277 277 277 278 278 279 278 278
252 254 255 256 256 257 258 259 261 263 265 266 268 270 271 273 274 274 274 275 275 276 276 276 275 274 273 272 272 272 273 274 275 276 276 277 279 279 278 278 278 278 279
255 255 256 256 257 258 259 260 262 264 266 268 269 270 272 274 275 275 275 275 275 276 276 275 274 273 273 273 273 273 273 274 274 275 276 277 278 279 278 278 277 278 278
256 257 257 257 258 260 261 262 263 265 267 268 270 271 272 273 273 273 274 274 275 276 276 275 274 274 274 275 275 274 274 274 274 275 277 277 276 276 276 276 276 276 277
257 258 259 260 260 261 263 264 264 265 267 269 270 271 272 272 272 272 273 274 275 275 275 274 275 275 275 275 275 276 276 275 275 275 276 276 275 274 274 275 275 276 276
258 259 260 261 262 262 263 264 265 266 267 268 270 270 271 271 271 271 272 274 274 275 275 275 276 276 276 276 277 277 277 276 275 275 274 274 274 272 272 273 274 274 273